Weather History for Berlin, NH

Change the Weather History Date:

Friday, September 20, 2013

  Actual Average Record
Temperature  
Mean Temperature 58 °F -  
Max Temperature 78 °F 65 °F 79 °F (2000)
Min Temperature 37 °F 39 °F 30 °F (2004)
Degree Days  
Heating Degree Days 8    
Growing Degree Days 8 (Base 50)    
Moisture  
Dew Point 43 °F    
Average Humidity 89    
Maximum Humidity 100    
Minimum Humidity 40    
Precipitation  
Precipitation 0.00 in - - ()
Sea Level Pressure  
Sea Level Pressure 30.09 in    
Wind  
Wind Speed 0 mph (SSE)    
Max Wind Speed 10 mph    
Max Gust Speed -    
Visibility 4 miles    
Events Fog    
Averages and records for this station are not official NWS values.
T = Trace of Precipitation, MM = Missing Value Source: NWS Daily Summary

Daily Weather History Graph

Daily Weather History Graph

Search for Another Location

Airport:

Trip Planner

Search our weather history database for the weather conditions in past years. The results will help you decide how hot, cold, wet, or windy it might be!

Date:

Astronomy

Sep. 20, 2013 Rise Set
Actual Time 6:29 AM EDT 6:45 PM EDT
Civil Twilight 6:00 AM EDT 7:14 PM EDT
Nautical Twilight 5:26 AM EDT 7:48 PM EDT
Astronomical Twilight 4:51 AM EDT 8:23 PM EDT
Moon 7:11 PM EDT (9/20) 7:45 AM EDT (9/20)
Length of Visible Light 13h 14m
Length of Day
12h 15m
Full, 98% of the Moon is Illuminated
Sep 20
Full
Sep 26
Last Quarter
Oct 4
New
Oct 11
First Quarter
Oct 18
Full

Hourly Weather History & Observations

Time (EDT) Temp. Windchill Dew Point Humidity Pressure Visibility Wind Dir Wind Speed Gust Speed Precip Events Conditions
12:17 AM 41.0 °F - 39.2 °F 93% 30.10 in 10.0 mi Calm Calm - N/A   Scattered Clouds
12:37 AM 41.0 °F - 39.2 °F 93% 30.10 in 10.0 mi Calm Calm - N/A   Mostly Cloudy
12:52 AM 41.0 °F - 39.0 °F 93% 30.11 in 9.0 mi Calm Calm - N/A   Overcast
12:56 AM 41.0 °F - 39.2 °F 93% 30.10 in 1.5 mi Calm Calm - N/A   Overcast
1:03 AM 41.0 °F - 39.2 °F 93% 30.10 in 1.2 mi Calm Calm - N/A   Overcast
1:06 AM 41.0 °F - 39.2 °F 93% 30.11 in 2.0 mi Calm Calm - N/A   Overcast
1:13 AM 41.0 °F - 39.2 °F 93% 30.10 in 6.0 mi Calm Calm - N/A   Overcast
1:17 AM 39.2 °F - 39.2 °F 100% 30.10 in 1.5 mi Calm Calm - N/A   Overcast
1:24 AM 39.2 °F - 39.2 °F 100% 30.10 in 1.0 mi Calm Calm - N/A   Overcast
1:38 AM 39.2 °F - 39.2 °F 100% 30.10 in 0.2 mi Calm Calm - N/A Fog Fog
1:45 AM 39.2 °F - 39.2 °F 100% 30.10 in 0.2 mi Calm Calm - N/A Fog Fog
1:52 AM 39.9 °F - 39.0 °F 97% 30.11 in 0.2 mi Calm Calm - N/A Fog Fog
2:13 AM 42.8 °F - 41.0 °F 93% 30.09 in 1.0 mi Calm Calm - N/A   Mist
2:24 AM 41.0 °F - 41.0 °F 100% 30.09 in 0.5 mi Calm Calm - N/A Fog Fog
2:32 AM 39.2 °F - 39.2 °F 100% 30.09 in 1.5 mi Calm Calm - N/A   Overcast
2:37 AM 41.0 °F - 39.2 °F 93% 30.09 in 0.8 mi Calm Calm - N/A   Mist
2:43 AM 39.2 °F - 39.2 °F 100% 30.08 in 0.2 mi Calm Calm - N/A Fog Fog
2:52 AM 39.9 °F - 39.9 °F 100% 30.09 in 0.2 mi Calm Calm - N/A Fog Fog
3:04 AM 41.0 °F - 41.0 °F 100% 30.08 in 1.0 mi Calm Calm - N/A   Mist
3:07 AM 41.0 °F - 39.2 °F 93% 30.08 in 2.0 mi Calm Calm - N/A   Overcast
3:14 AM 41.0 °F - 39.2 °F 93% 30.09 in 1.2 mi Calm Calm - N/A   Overcast
3:30 AM 42.8 °F - 41.0 °F 93% 30.09 in 0.5 mi Calm Calm - N/A Fog Fog
3:38 AM 39.2 °F - 39.2 °F 100% 30.09 in 0.5 mi Calm Calm - N/A Fog Fog
3:47 AM 39.2 °F - 39.2 °F 100% 30.09 in 0.2 mi Calm Calm - N/A Fog Fog
3:52 AM 39.9 °F - 39.9 °F 100% 30.10 in 0.5 mi Calm Calm - N/A Fog Fog
3:55 AM 39.2 °F - 39.2 °F 100% 30.09 in 1.8 mi Calm Calm - N/A   Overcast
4:04 AM 39.2 °F - 39.2 °F 100% 30.09 in 0.8 mi Calm Calm - N/A   Mist
4:23 AM 39.2 °F - 39.2 °F 100% 30.09 in 0.2 mi Calm Calm - N/A Fog Fog
4:52 AM 39.9 °F - 39.9 °F 100% 30.11 in 0.2 mi Calm Calm - N/A Fog Fog
5:01 AM 39.2 °F - 39.2 °F 100% 30.10 in 0.5 mi Calm Calm - N/A Fog Fog
5:22 AM 39.2 °F - 39.2 °F 100% 30.10 in 0.2 mi Calm Calm - N/A Fog Fog
5:41 AM 39.2 °F - 37.4 °F 93% 30.10 in 0.2 mi Calm Calm - N/A Fog Fog
5:52 AM 39.0 °F - 37.9 °F 96% 30.11 in 0.2 mi Calm Calm - N/A Fog Fog
6:16 AM 39.2 °F - 37.4 °F 93% 30.10 in 0.8 mi Calm Calm - N/A   Mist
6:28 AM 37.4 °F - 37.4 °F 100% 30.10 in 0.5 mi Calm Calm - N/A Fog Fog
6:36 AM 37.4 °F - 37.4 °F 100% 30.10 in 0.2 mi Calm Calm - N/A Fog Fog
6:52 AM 39.0 °F - 37.9 °F 96% 30.13 in 0.2 mi Calm Calm - N/A Fog Fog
7:09 AM 39.2 °F - 39.2 °F 100% 30.11 in 1.0 mi Calm Calm - N/A   Mist
7:23 AM 41.0 °F - 39.2 °F 93% 30.11 in 0.2 mi Calm Calm - N/A Fog Fog
7:30 AM 41.0 °F - 41.0 °F 100% 30.11 in 0.2 mi Calm Calm - N/A Fog Fog
7:52 AM 43.0 °F - 42.1 °F 97% 30.14 in 0.2 mi Calm Calm - N/A Fog Fog
8:18 AM 44.6 °F - 44.6 °F 100% 30.13 in 1.0 mi Calm Calm - N/A   Mist
8:21 AM 44.6 °F 43.1 °F 44.6 °F 100% 30.13 in 2.5 mi North 3.5 mph - N/A   Mostly Cloudy
8:28 AM 46.4 °F - 44.6 °F 93% 30.13 in 10.0 mi Calm Calm - N/A   Scattered Clouds
8:52 AM 48.9 °F - 46.9 °F 93% 30.16 in 10.0 mi Calm Calm - N/A   Mostly Cloudy
9:52 AM 55.9 °F - 50.0 °F 80% 30.14 in 10.0 mi Calm Calm - N/A   Clear
10:52 AM 66.0 °F - 51.1 °F 59% 30.11 in 10.0 mi Calm Calm - N/A   Clear
11:52 AM 73.0 °F - 53.1 °F 49% 30.07 in 10.0 mi SSW 5.8 mph - N/A   Clear
12:52 PM 75.9 °F - 50.0 °F 40% 30.06 in 10.0 mi Variable 5.8 mph - N/A   Clear
1:52 PM 78.1 °F - 52.0 °F 40% 30.04 in 10.0 mi South 5.8 mph - N/A   Clear
2:52 PM 77.0 °F - 53.1 °F 43% 30.03 in 10.0 mi SE 6.9 mph - N/A   Clear
3:52 PM 77.0 °F - 54.0 °F 45% 30.01 in 10.0 mi SSE 8.1 mph - N/A   Clear
4:52 PM 75.0 °F - 54.0 °F 48% 30.00 in 10.0 mi SSE 10.4 mph - N/A   Clear
5:52 PM 72.0 °F - 55.9 °F 57% 30.01 in 10.0 mi SSE 6.9 mph - N/A   Clear
6:52 PM 64.9 °F - 55.0 °F 70% 30.02 in 10.0 mi Calm Calm - N/A   Clear
7:52 PM 57.9 °F - 55.0 °F 90% 30.03 in 10.0 mi Calm Calm - N/A   Clear
8:52 PM 55.9 °F - 53.1 °F 90% 30.02 in 10.0 mi Calm Calm - N/A   Clear
9:52 PM 52.0 °F - 50.0 °F 93% 30.02 in 10.0 mi Calm Calm - N/A   Clear
10:52 PM 50.0 °F - 48.0 °F 93% 30.01 in 10.0 mi Calm Calm - N/A   Clear
11:52 PM 48.9 °F - 48.0 °F 97% 30.00 in 9.0 mi Calm Calm - N/A   Clear